sat.trackr.live / text

‹ back to catalog

STARLINK-37199

NORAD 68327 · 2026-059G

PAYLOAD ACTIVE UNKNOWN

§ Identity

Operator
Country
US
Launch date
2026-03-22
Launch site
AFETR
Launch vehicle
Mass (kg)
RCS (m²)

Purposes: comms

External: N2YO · Heavens-Above · Gunter

§ Orbital elements

Epoch: 2026-05-24T20:34:02.442144Z

Period
94.10 min
Inclination
53.1595°
Eccentricity
0.0001049
Mean motion
15.30207832 rev/d
Perigee alt
474.5 km
Apogee alt
475.9 km
Semi-major
6,853.3 km
B*
4.6967e-4
RAAN
354.0352°
Arg perigee
89.4466°
Mean anomaly
270.6655°
Rev number
984

§ Raw data

STARLINK-371991 68327U 26059G   26144.85697271  .00013580  00000+0  46967-3 0  99912 68327  53.1595 354.0352 0001049  89.4466 270.6655 15.30207832  9842

JSON: /api/v1/satellites/68327 · /tle

For live sub-satellite position, see the globe view (requires WebGL).

§ Visibility from observer

Set your observer location to see the next 7 days of passes ≥ 10°. The values pass through the URL so the page stays shareable.

No JS? Fill the form by hand. The geolocation button needs JavaScript.